Regional Weather Roundup
Issued by NWS Columbia, SC

Home | Current Version | Previous Version | Text Only | Print | Product List | Glossary On
Versions: 1 2 3 4 5 6 7 8 9 10 11 12 13 14 15 16 17 18 19 20 21 22 23 24 25 26 27 28 29 30 31 32 33 34 35 36 37 38 39 40 41 42 43 44 45 46 47 48 49 50
000
ASUS42 KCAE 292010
RWRCAE
REGIONAL WEATHER ROUNDUP
NATIONAL WEATHER SERVICE COLUMBIA SC
400 PM EDT FRI APR 29 2016

NOTE: "FAIR" INDICATES FEW OR NO CLOUDS BELOW 12,000 FEET WITH NO
SIGNIFICANT WEATHER AND/OR OBSTRUCTIONS TO VISIBILITY.

NOT ALL STATIONS ARE QUALITY CONTROLLED BY THE NATIONAL
WEATHER SERVICE. USE DATA WITH CAUTION...ESPECIALLY
DEWPOINT OBSERVATIONS.

SCZ001>056-GAZ040-063>065-077-292100-
...UPSTATE SOUTH CAROLINA...

CITY           SKY/WX    TMP DP  RH WIND       PRES   REMARKS
ANDERSON       SUNNY     87  49  26 VRB5      29.95F
LIBERTY        CLEAR     85  50  29 SW5       29.95F
SPARTANBURG    CLOUDY    86  41  20 S3        29.95F
CLEMSON        SUNNY     89  47  23 VRB7      29.96F
GREENVILLE     CLOUDY    86  51  29 S9        29.96F
GREENWOOD      LGT RAIN  87  48  25 S7        29.96F
GREER          CLOUDY    86  51  29 SW10      29.94F
ROCK HILL      SUNNY     85  53  33 CALM      29.95F
CHESTER        CLEAR     84  46  26 NW6       29.95F
LAURENS        CLEAR     86  50  28 S8        29.95F


...CENTRAL SOUTH CAROLINA...

CITY           SKY/WX    TMP DP  RH WIND       PRES   REMARKS
COLUMBIA APT   MOSUNNY   89  50  26 CALM      29.92F
COLUMBIA OWENS SUNNY     90  50  25 VRB7      29.93F
MCENTIRE ANGB  PTSUNNY   86  59  39 CALM      29.94F
ORANGEBURG     SUNNY     89  54  30 VRB5      29.93F
SUMTER SHAW    PTSUNNY   87  57  36 SW7       29.92F
NEWBERRY       CLEAR     88  50  27 W7        29.97F
AIKEN          FAIR      88  50  27 N5        29.97F
BARNWELL       FAIR      93  57  29 CALM      29.94F
CAMDEN         FAIR      88  54  31 CALM      29.94F
LANCASTER      CLEAR     84  52  32 S5        29.95F
WINNSBORO      CLEAR     88  52  29 S5        29.95F


...EASTERN AND COASTAL SOUTH CAROLINA...

CITY           SKY/WX    TMP DP  RH WIND       PRES   REMARKS
MYRTLE BEACH   MOSUNNY   75  63  64 SE18      29.98S
N MYRTLE BCH   SUNNY     74  65  73 E10G18    29.96F
CONWAY         MOCLDY    81  66  61 E6        29.94F
MARION         MOCLDY    82  59  44 NE3       29.95S
HARTSVILLE     FAIR      86  55  35 S3        29.93F
FLORENCE       MOSUNNY   83  59  44 S5        29.94F
CHARLESTON APT MOSUNNY   86  59  39 SE13      29.94S
MOUNT PLEASANT FAIR      82  64  54 E8        29.94F
WALTERBORO     MOCLDY    91  52  25 SW6       29.94S
BEAUFORT       MOSUNNY   90  61  37 SE3       29.93F


...EASTERN GEORGIA...

CITY           SKY/WX    TMP DP  RH WIND       PRES   REMARKS
AUGUSTA BUSH F SUNNY     90  54  29 E5        29.92F
AUGUSTA DANIEL SUNNY     92  52  25 CALM      29.94F
THOMSON        SUNNY     89  59  35 CALM      29.98F
WASHINGTON     FAIR      82  52  34 CALM      29.95F
CLAXTON        FAIR      91  61  36 NW5       29.93F
SYLVANIA       PTCLDY    92  60  34 N3        29.94S
STATESBORO     SUNNY     93  62  35 NW5       29.93F
SAVANNAH       MOSUNNY   93  57  29 N5        29.92F


...SOUTHERN NORTH CAROLINA...

CITY           SKY/WX    TMP DP  RH WIND       PRES   REMARKS
CHARLOTTE      PTSUNNY   85  50  29 VRB6      29.95F
MONROE         MOSUNNY   85  54  34 E5        29.94F
WADESBORO      CLEAR     86  44  23 NW8       29.93F
ROCKINGHAM     CLEAR     84  54  36 CALM      29.95F
RUTHERFORDTON  SUNNY     85  48  27 SE6       29.95F
ASHEVILLE      MOSUNNY   81  41  24 MISG      30.01F

$$



USA.gov is the U.S. government's official web portal to all federal, state and local government web resources and services.